User: anonymous   Login
Location: Toronto
(43.6672°N, 79.4170°W)
Time: 16:09:33
(UTC-05:00)
Language:

ISS - Orbit

View from above orbital plane
View from above orbital plane
View from above satellite
View from above satellite

Ground track
Ground track

The orbit data is extracted from the following two-line orbital elements,

1 25544U 98067A   15058.48161588  .00023857  00000-0  35618-3 0  9991
2 25544 051.6478 271.9610 0008043 054.4849 018.6646 15.54887163930964
Epoch (UTC): 27 February 2015 11:33:31
Eccentricity: 0.0008043
inclination: 51.6478°
perigee height: 397 km
apogee height: 408 km
right ascension of ascending node: 271.9610°
argument of perigee: 54.4849°
revolutions per day: 15.54887163
mean anomaly at epoch: 18.6646°
orbit number at epoch: 93096

The dashed part of the orbit path shows where the satellite is in the earth's shadow,  

DLR